Theta_e
354 356 356 348 352 359 358 347 341 333 337 347 349 357 353 354 352 350 351 338 337 335 334 335 339 340 342 343 343 343 344 345 346 345 346 346 346 347
358 355 356 357 352 351 348 345 347 340 337 343 344 356 350 348 347 350 347 338 335 334 333 334 337 338 340 341 341 341 340 341 342 341 341 342 341 342
354 351 346 346 349 357 358 353 352 350 339 343 357 355 348 347 347 347 345 345 342 334 333 334 334 336 338 338 338 338 338 338 338 339 339 339 339 339
351 351 350 347 349 349 347 345 345 354 347 345 352 348 348 348 344 343 342 341 340 333 332 332 332 332 332 331 330 330 330 331 333 334 336 336 337 338
350 350 349 351 353 350 353 353 353 355 354 346 348 342 336 337 334 333 334 335 334 333 332 331 330 329 329 327 325 323 321 323 325 327 329 331 333 336
350 350 350 350 351 352 353 352 353 351 350 347 346 336 335 333 331 328 327 334 336 335 333 335 332 330 329 327 325 323 319 318 318 319 321 322 325 328
350 350 350 351 343 348 347 353 354 348 343 343 340 335 331 327 325 327 327 329 334 336 333 337 338 339 336 330 330 327 322 320 318 318 318 317 318 320
346 347 347 344 342 337 336 336 340 349 345 339 336 332 332 330 328 326 328 326 323 338 336 336 340 339 338 339 329 324 321 320 319 318 317 316 316 317
347 346 343 341 342 345 333 331 332 335 337 347 340 340 339 334 330 327 329 328 329 337 337 335 339 339 341 331 325 322 321 320 320 319 318 317 316 315
346 346 348 347 347 344 344 341 340 340 342 342 345 347 348 343 336 333 332 332 333 335 333 333 337 336 340 338 325 322 319 318 318 318 316 315 313 312
345 346 347 348 337 326 342 341 344 341 329 329 329 331 331 330 335 335 328 326 325 327 336 334 334 334 334 335 331 322 319 316 316 316 316 314 311 310
350 351 330 339 323 320 342 340 342 341 341 339 337 331 331 333 327 337 331 325 326 326 335 330 332 332 330 335 336 330 328 314 313 313 313 311 308 322
343 343 344 321 318 314 320 344 341 344 339 341 339 337 338 338 335 337 340 335 330 330 337 334 334 333 333 333 332 333 331 328 326 320 308 308 307 315
345 345 344 316 313 311 317 323 318 325 345 340 338 336 335 335 336 338 341 342 341 341 343 339 337 333 333 333 329 333 333 333 329 328 327 317 307 309
342 335 317 312 309 311 313 317 314 338 341 338 337 336 338 338 342 342 341 344 344 343 340 344 340 340 336 334 335 330 327 328 331 331 329 328 323 323
329 336 330 322 318 329 327 323 335 338 340 337 338 339 340 339 335 338 335 336 333 334 341 344 343 342 334 335 338 335 334 328 329 331 331 330 328 328
315 332 331 333 332 329 329 330 332 337 339 340 345 343 343 343 336 335 333 330 328 329 331 337 340 342 340 342 333 333 334 336 338 334 335 333 330 330
318 326 328 325 326 328 329 330 331 332 342 343 343 343 341 339 332 331 331 328 326 327 330 332 336 335 334 336 328 336 335 330 334 330 331 330 327 323
318 331 330 329 330 329 331 331 328 329 328 329 330 329 327 326 325 325 325 325 325 326 327 328 328 326 322 320 323 313 329 330 328 324 324 321 322 327
326 331 333 334 334 332 333 337 335 329 325 325 323 322 321 321 320 321 323 322 319 318 318 320 320 320 318 317 318 316 306 325 325 323 321 324 326 315
331 329 328 329 331 332 330 329 329 324 324 324 322 320 319 317 316 317 317 311 314 317 315 316 316 317 321 321 316 314 315 308 313 323 324 321 319 320
324 322 322 321 320 324 329 324 319 318 318 318 318 318 319 319 316 315 315 314 314 314 314 314 316 320 320 319 316 313 315 315 309 307 307 310 314 313
318 319 321 321 320 321 321 318 318 319 319 317 317 316 318 316 316 316 315 316 315 314 315 314 316 319 318 316 313 316 315 315 313 310 310 305 305 304
Wind_Speed
9 9 8 6 4 5 4 3 4 7 4 3 6 4 5 3 4 5 3 7 3 2 3 4 4 5 5 4 5 4 6 6 10 14 17 18 18 18
6 9 7 5 5 4 4 7 6 6 5 3 4 4 4 3 5 4 3 5 3 2 2 5 5 5 5 4 5 4 5 8 13 14 16 16 17 17
8 8 5 4 4 6 6 5 6 6 7 5 2 5 7 7 5 4 5 3 4 3 2 4 5 6 5 5 6 7 9 12 15 17 19 19 19 18
8 8 9 8 9 6 4 6 8 8 7 10 5 5 6 7 5 6 3 2 1 2 2 3 3 5 5 5 6 7 9 12 16 17 18 18 17 15
8 8 8 8 7 7 8 8 7 5 6 7 4 2 2 2 3 2 3 3 1 2 1 0 2 2 4 4 5 7 10 11 14 15 16 16 14 13
7 9 10 10 10 9 7 8 6 5 6 6 5 4 3 2 2 3 3 4 3 2 2 2 4 5 5 5 7 9 10 11 12 12 12 13 14 13
6 7 9 7 5 3 7 7 6 7 8 8 2 3 4 3 6 4 4 5 6 6 5 7 6 6 5 5 7 12 11 11 11 13 13 13 13 12
7 7 8 6 5 6 3 1 2 6 8 6 6 5 6 4 5 6 5 4 3 7 5 6 7 6 7 8 9 10 10 11 11 10 10 10 11 11
8 8 9 10 12 10 9 5 5 6 5 6 7 9 8 9 9 9 8 9 6 6 7 6 7 7 4 8 16 11 10 11 10 11 11 10 10 10
10 9 10 10 9 9 9 10 10 11 10 9 10 9 7 11 12 11 11 10 3 4 5 6 9 6 7 8 17 14 11 9 9 10 11 11 11 11
11 11 11 11 10 11 10 11 10 9 8 9 4 4 3 10 10 7 7 8 5 6 9 4 6 4 7 8 10 14 13 12 11 11 11 10 10 9
11 12 12 13 3 15 12 11 11 10 10 10 7 4 5 6 11 10 8 9 6 6 8 8 8 7 5 8 9 11 10 12 13 11 11 12 12 8
10 9 10 17 16 17 14 12 13 10 12 10 9 9 10 8 10 11 9 11 9 8 10 12 10 10 8 5 10 11 12 11 11 10 12 12 14 13
13 12 12 5 13 17 16 14 9 9 9 9 9 10 10 9 10 12 12 10 9 11 9 15 8 9 10 6 10 11 11 11 12 12 12 12 12 14
12 12 9 2 8 8 16 17 13 11 11 10 10 9 11 11 11 11 12 11 10 10 9 12 11 9 10 8 7 8 11 9 11 11 11 11 12 12
10 11 10 11 9 9 10 12 11 12 12 12 10 9 6 7 9 9 10 9 10 10 11 12 12 10 9 9 8 8 7 8 10 10 9 9 10 11
10 5 7 8 8 8 8 10 9 11 13 11 6 7 8 8 7 9 8 8 10 10 9 9 11 10 8 5 3 6 7 6 3 6 7 7 7 8
4 5 6 6 7 8 9 8 10 12 10 9 8 7 8 8 7 3 5 7 9 8 10 9 8 6 3 5 4 4 4 5 6 5 4 6 6 2
5 9 7 6 6 4 5 5 3 2 2 2 1 1 3 2 5 4 3 3 5 5 3 4 5 5 6 6 3 13 3 2 2 2 3 2 1 3
4 6 5 6 6 6 7 8 5 4 3 3 2 2 2 2 3 5 6 5 7 3 4 5 5 2 2 2 3 2 11 2 3 4 3 2 4 7
3 4 2 4 3 2 2 3 5 4 4 3 3 3 4 3 3 3 3 8 6 3 7 5 4 7 4 3 3 3 2 9 5 1 3 5 6 7
3 3 2 2 3 2 2 3 5 4 5 4 4 4 4 5 5 6 6 5 5 5 3 4 4 1 1 1 4 6 4 3 4 6 7 3 2 2
7 6 5 4 4 6 5 5 5 6 6 5 6 5 4 7 7 5 6 7 7 6 5 3 3 4 4 4 2 6 7 6 5 5 4 5 8 9
Wind_Direction
235 233 223 220 241 265 301 281 290 256 286 271 233 186 212 198 138 200 195 122 127 52 355 315 307 308 328 338 322 308 226 185 161 153 145 146 154 150
232 231 220 207 203 248 256 252 243 248 258 243 195 148 192 208 143 225 171 171 124 94 4 315 315 303 329 340 5 45 90 124 132 132 141 145 137 130
221 203 211 204 257 230 220 230 237 231 240 252 43 160 169 196 188 205 175 202 154 96 18 319 324 335 349 3 35 64 92 109 119 128 128 128 128 128
216 228 221 207 216 219 221 228 231 209 232 246 220 179 196 184 180 188 154 127 111 108 25 354 345 358 16 58 79 89 97 112 121 124 124 123 126 131
212 208 222 225 220 232 231 223 231 233 231 241 221 118 102 118 130 133 165 186 179 171 187 58 50 70 80 94 110 123 112 108 106 114 126 135 142 150
233 228 216 215 223 221 226 235 238 233 227 231 231 169 163 143 147 162 170 212 216 212 158 154 182 115 113 128 146 127 120 121 124 125 131 132 130 133
249 236 236 227 75 208 233 215 235 233 232 230 189 173 166 158 186 166 185 193 204 206 200 185 178 176 135 128 143 140 132 133 138 140 144 144 142 142
231 245 259 175 186 168 222 138 317 259 247 229 210 213 198 177 173 177 173 170 194 223 211 197 185 192 163 164 150 151 147 149 152 145 138 140 145 145
225 236 246 246 203 228 197 194 228 236 249 253 230 229 217 186 178 177 184 187 203 169 199 200 195 190 172 129 149 157 157 153 154 156 154 156 154 151
262 255 243 262 268 219 235 205 224 219 220 222 235 250 243 174 190 187 178 183 184 182 208 206 196 183 173 162 163 167 174 170 172 174 172 165 165 166
250 248 251 244 235 178 222 244 228 219 139 124 89 47 74 156 181 168 166 166 176 194 192 240 193 156 171 173 181 178 175 180 184 181 178 173 170 165
228 232 231 239 225 176 209 233 244 210 232 188 185 187 202 179 172 188 176 188 178 189 189 207 186 193 188 204 184 177 190 188 182 182 186 180 172 194
258 250 246 206 197 185 207 224 240 218 220 218 212 214 200 191 200 210 212 199 197 215 173 199 192 186 209 165 176 181 194 182 196 192 192 188 186 217
261 262 258 303 217 194 190 214 235 229 227 208 215 212 217 207 204 195 216 217 213 225 172 201 216 209 200 205 177 187 191 192 193 195 196 192 197 223
260 275 330 152 215 245 230 198 196 227 235 219 213 214 211 221 206 190 196 208 224 223 224 203 233 220 224 198 210 175 183 198 188 198 188 189 192 203
257 263 284 291 305 233 224 239 217 212 226 237 218 219 219 210 198 189 194 192 216 220 217 200 221 244 219 218 186 202 206 189 185 196 192 190 181 197
328 293 273 265 258 238 228 222 199 219 229 235 238 218 221 225 195 192 190 196 213 214 198 198 214 229 246 281 236 201 193 190 204 188 183 195 187 199
248 244 242 235 246 239 224 202 193 217 223 232 240 236 229 219 218 193 181 196 206 209 197 198 192 198 221 239 42 227 200 206 202 179 191 190 189 169
209 238 241 232 247 222 247 198 173 183 86 120 184 302 297 273 194 187 166 152 249 221 190 190 185 187 196 223 69 32 15 45 82 80 103 109 194 210
250 268 303 242 222 205 210 226 197 164 185 189 194 179 153 299 265 187 194 192 142 84 76 95 102 116 106 43 84 55 22 104 120 149 160 205 242 114
289 248 337 315 256 252 188 165 179 171 163 159 143 133 126 124 117 84 45 89 45 101 110 97 61 76 92 107 103 123 65 47 50 273 189 211 208 200
1 11 26 5 3 342 165 134 108 105 114 119 139 144 154 146 127 109 103 92 92 77 69 85 86 53 162 206 122 124 145 133 83 73 86 90 356 278
19 17 11 46 51 52 56 76 84 98 101 107 109 104 125 123 112 96 117 121 117 122 133 124 131 222 223 212 191 168 152 178 185 184 172 142 135 142